Immokalee Regional Airport [I, FL

12:14 AM EDT on April 25, 2018 (GMT -0400)
Immokalee

Weather History for KIMM - February, 2014

Change the Weather History Date:

Wednesday, February 26, 2014

  Actual Average (KRSW) Record (KRSW)
Temperature  
Mean Temperature 70 °F -  
Max Temperature 86 °F 74 °F 87 °F (1962)
Min Temperature 55 °F 52 °F 32 °F (1967)
Cooling Degree Days 6    
Growing Degree Days 20 (Base 50)    
Moisture  
Dew Point 66 °F    
Average Humidity 67    
Maximum Humidity 100    
Minimum Humidity 45    
Precipitation  
Precipitation 1.36 in - - ()
Sea Level Pressure  
Sea Level Pressure 29.89 in    
Wind  
Wind Speed 4 mph (SW)    
Max Wind Speed 14 mph    
Max Gust Speed 23 mph    
Visibility 6 miles    
Events      
Averages and records for this station are not official NWS values.
T = Trace of Precipitation, MM = Missing Value Source: NWS Daily Summary

Daily Weather History Graph

Daily Weather History Graph

Search for Another Location

Airport or City:

Astronomy

Feb. 26, 2014 Rise Set
Actual Time 6:52 AM EST 6:25 PM EST
Civil Twilight 6:28 AM EST 6:48 PM EST
Nautical Twilight 6:01 AM EST 7:15 PM EST
Astronomical Twilight 5:35 AM EST 7:42 PM EST
Moon 4:24 AM EST (2/26) 3:48 PM EST (2/26)
Length of Visible Light 12h 19m
Length of Day
11h 33m
Waning Crescent, 10% of the Moon is Illuminated
Feb 26
Waning Crescent
Mar 1
New
Mar 8
First Quarter
Mar 16
Full
Mar 23
Last Quarter

Hourly Weather History & Observations

Time (EST) Temp. Heat Index Dew Point Humidity Pressure Visibility Wind Dir Wind Speed Gust Speed Precip Events Conditions
12:15 AM 62.6 °F - - N/A% 30.01 in 3.0 mi Calm Calm - 0.00 in   Clear
12:35 AM 62.6 °F - - N/A% 30.00 in 1.5 mi West 3.5 mph - 0.00 in   Clear
12:55 AM 62.6 °F - - N/A% 29.99 in 3.0 mi Calm Calm - 0.00 in   Clear
1:15 AM 60.8 °F - - N/A% 29.99 in 0.5 mi Calm Calm - 0.00 in   Unknown
1:35 AM 59.0 °F - - N/A% 29.98 in 0.2 mi Calm Calm - 0.00 in   Unknown
1:55 AM 59.0 °F - - N/A% 29.97 in 0.2 mi Calm Calm - 0.00 in   Overcast
2:15 AM 59.0 °F - - N/A% 29.97 in 0.2 mi Calm Calm - 0.00 in   Overcast
2:35 AM 62.6 °F - - N/A% 29.96 in 0.2 mi Calm Calm - 0.00 in   Overcast
2:55 AM 62.6 °F - - N/A% 29.95 in 0.2 mi Calm Calm - 0.00 in   Overcast
3:15 AM 60.8 °F - - N/A% 29.94 in 0.2 mi Calm Calm - 0.00 in   Overcast
3:35 AM 60.8 °F - - N/A% 29.93 in 0.2 mi Calm Calm - 0.00 in   Overcast
3:55 AM 60.8 °F - - N/A% 29.93 in 0.2 mi Calm Calm - 0.00 in   Overcast
4:15 AM 60.8 °F - - N/A% 29.92 in 0.2 mi Calm Calm - 0.00 in   Overcast
4:35 AM 57.2 °F - - N/A% 29.92 in 0.2 mi Calm Calm - 0.00 in   Overcast
4:55 AM 57.2 °F - - N/A% 29.92 in 0.5 mi Calm Calm - 0.00 in   Overcast
5:15 AM 55.4 °F - - N/A% 29.92 in 0.2 mi Calm Calm - 0.00 in   Overcast
5:35 AM 55.4 °F - - N/A% 29.92 in 0.2 mi Calm Calm - 0.00 in   Overcast
5:55 AM 55.4 °F - - N/A% 29.93 in 0.2 mi Calm Calm - 0.00 in   Overcast
6:15 AM 55.4 °F - - N/A% 29.92 in 0.2 mi Calm Calm - 0.00 in   Overcast
6:35 AM 55.4 °F - - N/A% 29.92 in 0.5 mi Calm Calm - 0.00 in   Mostly Cloudy
6:55 AM 55.4 °F - - N/A% 29.92 in 6.0 mi Calm Calm - 0.00 in   Clear
7:15 AM 55.4 °F - - N/A% 29.92 in 0.2 mi Calm Calm - 0.00 in   Unknown
7:35 AM 55.4 °F - - N/A% 29.92 in 10.0 mi Calm Calm - 0.00 in   Scattered Clouds
7:55 AM 57.2 °F - - N/A% 29.92 in 9.0 mi Calm Calm - 0.00 in   Mostly Cloudy
8:15 AM 60.8 °F - - N/A% 29.92 in 8.0 mi Calm Calm - 0.00 in   Partly Cloudy
8:35 AM 64.4 °F - - N/A% 29.93 in 10.0 mi Calm Calm - 0.00 in   Clear
8:55 AM 66.2 °F - - N/A% 29.93 in 9.0 mi Calm Calm - 0.00 in   Clear
9:15 AM 68.0 °F - - N/A% 29.93 in 9.0 mi South 5.8 mph - 0.00 in   Clear
9:35 AM 71.6 °F - 69.8 °F 94% 29.93 in 10.0 mi SSW 6.9 mph - 0.00 in   Clear
9:55 AM 75.2 °F - 66.2 °F 73% 29.93 in 10.0 mi SSW 8.1 mph - 0.00 in   Clear
10:15 AM 78.8 °F - 62.6 °F 57% 29.93 in 10.0 mi SW 8.1 mph - 0.00 in   Clear
10:35 AM 78.8 °F - 59.0 °F 51% 29.93 in 10.0 mi South 9.2 mph - 0.00 in   Clear
10:55 AM 80.6 °F 81.1 °F 59.0 °F 48% 29.93 in 10.0 mi SW 10.4 mph - 0.00 in   Clear
11:15 AM 80.6 °F 81.5 °F 60.8 °F 51% 29.92 in 10.0 mi SSW 9.2 mph - 0.00 in   Clear
11:35 AM 84.2 °F 84.4 °F 60.8 °F 45% 29.92 in 10.0 mi SW 9.2 mph - 0.00 in   Clear
11:55 AM 82.4 °F 83.4 °F 62.6 °F 51% 29.91 in 10.0 mi SSW 10.4 mph - 0.00 in   Clear
12:15 PM 84.2 °F 85.6 °F 64.4 °F 51% 29.90 in 10.0 mi SW 8.1 mph - 0.00 in   Clear
12:35 PM 84.2 °F 85.6 °F 64.4 °F 51% 29.89 in 10.0 mi SW 11.5 mph 19.6 mph 0.00 in   Partly Cloudy
12:55 PM 82.4 °F 82.9 °F 60.8 °F 48% 29.88 in 10.0 mi SW 11.5 mph 17.3 mph 0.00 in   Clear
1:15 PM 84.2 °F 84.4 °F 60.8 °F 45% 29.87 in 10.0 mi WSW 13.8 mph 19.6 mph 0.00 in   Clear
1:35 PM 84.2 °F 84.4 °F 60.8 °F 45% 29.86 in 10.0 mi SW 13.8 mph 23.0 mph 0.00 in   Clear
1:55 PM 86.0 °F 86.6 °F 62.6 °F 45% 29.84 in 10.0 mi WSW 11.5 mph 20.7 mph 0.37 in   Clear
2:15 PM 84.2 °F 84.4 °F 60.8 °F 45% 29.83 in 10.0 mi WSW 13.8 mph 20.7 mph 0.00 in   Clear
2:35 PM 86.0 °F 86.6 °F 62.6 °F 45% 29.82 in 10.0 mi SW 11.5 mph 20.7 mph 0.00 in   Unknown
2:55 PM 82.4 °F 83.4 °F 62.6 °F 51% 29.81 in - SW 12.7 mph 19.6 mph 0.00 in   Clear
3:15 PM 80.6 °F 81.5 °F 60.8 °F 51% 29.81 in 8.0 mi SW 11.5 mph 19.6 mph 0.02 in   Clear
3:35 PM 80.6 °F 82.3 °F 64.4 °F 58% 29.81 in 9.0 mi WSW 10.4 mph 18.4 mph 0.99 in   Clear
3:55 PM 78.8 °F - 66.2 °F 65% 29.81 in 8.0 mi WSW 13.8 mph 21.9 mph 0.99 in   Clear
4:15 PM 78.8 °F - 64.4 °F 61% 29.81 in 8.0 mi West 10.4 mph - 0.00 in   Clear
4:35 PM 78.8 °F - 66.2 °F 65% 29.81 in 9.0 mi WSW 12.7 mph 19.6 mph 0.00 in   Clear
4:55 PM 78.8 °F - 66.2 °F 65% 29.81 in 9.0 mi WSW 6.9 mph 17.3 mph 0.00 in   Clear
5:15 PM 77.0 °F - 68.0 °F 74% 29.81 in 9.0 mi WSW 9.2 mph 17.3 mph 0.00 in   Clear
5:35 PM 77.0 °F - 69.8 °F 78% 29.81 in 9.0 mi WSW 8.1 mph 17.3 mph 0.00 in   Clear
5:55 PM 75.2 °F - 69.8 °F 83% 29.81 in 9.0 mi WSW 6.9 mph - 0.00 in   Clear
6:15 PM 75.2 °F - 71.6 °F 89% 29.81 in 9.0 mi WSW 9.2 mph - 0.00 in   Clear
6:35 PM 73.4 °F - 71.6 °F 94% 29.81 in 9.0 mi SW 8.1 mph - 0.00 in   Clear
6:55 PM 73.4 °F - 71.6 °F 94% 29.81 in 10.0 mi SW 8.1 mph - 0.00 in   Clear
7:15 PM 73.4 °F - 71.6 °F 94% 29.82 in 9.0 mi SW 5.8 mph - 0.00 in   Clear
7:35 PM 73.4 °F - 73.4 °F 100% 29.83 in 10.0 mi SW 4.6 mph - 0.00 in   Clear
7:55 PM 73.4 °F - 73.4 °F 100% 29.83 in 9.0 mi SW 9.2 mph - 0.00 in   Clear
8:15 PM 73.4 °F - 73.4 °F 100% 29.84 in 9.0 mi SW 8.1 mph - 0.00 in   Clear
8:35 PM 71.6 °F - 71.6 °F 100% 29.85 in 10.0 mi SW 6.9 mph - 0.00 in   Clear
8:55 PM 71.6 °F - - N/A% 29.85 in 8.0 mi SW 5.8 mph - 0.00 in   Clear
9:15 PM 71.6 °F - - N/A% 29.85 in 8.0 mi SW 5.8 mph - 0.00 in   Clear
9:35 PM 71.6 °F - - N/A% 29.85 in 9.0 mi SW 5.8 mph - 0.00 in   Clear
9:55 PM 71.6 °F - - N/A% 29.84 in 8.0 mi SW 4.6 mph - 0.00 in   Clear
10:15 PM 71.6 °F - - N/A% 29.84 in 8.0 mi SSW 5.8 mph - 0.00 in   Clear
10:35 PM 71.6 °F - - N/A% 29.84 in 8.0 mi SW 5.8 mph - 0.00 in   Clear
10:55 PM 71.6 °F - - N/A% 29.84 in 7.0 mi SW 5.8 mph - 0.00 in   Clear
11:15 PM 71.6 °F - - N/A% 29.84 in 7.0 mi SW 6.9 mph - 0.00 in   Clear
11:35 PM 71.6 °F - - N/A% 29.83 in 6.0 mi SW 4.6 mph - 0.00 in   Scattered Clouds
11:55 PM 71.6 °F - - N/A% 29.82 in 6.0 mi SW 8.1 mph - 0.00 in   Mostly Cloudy